EW1067 Weather Reports


Display with metric or nautical units.
time (UTC)temp
F
wind
direction
speed
MPH
gust
MPH
rain 1hr
in
rain 24hr
in
rain mn
in
humidity
%
barometer
mb
20220706010114 92 142 0.0 3.0 0.00 0.00 0.00 43 1010.7
20220706004550 92 178 0.0 3.0 0.00 0.00 0.00 42 1010.4
20220706003053 92 158 0.0 3.0 0.00 0.00 0.00 43 1010.2
20220706001516 92 126 0.0 6.0 0.00 0.00 0.00 42 1010.2
20220706000113 93 136 0.0 5.0 0.00 0.00 0.00 43 1010.3
20220705234503 93 159 0.0 6.0 0.00 0.00 0.00 42 1010.3
20220705233044 93 130 0.0 8.0 0.00 0.00 0.00 42 1010.3
20220705231513 93 218 0.0 3.0 0.00 0.00 0.00 42 1010.3
20220705230054 94 113 0.0 6.0 0.00 0.00 0.00 42 1010.4
20220705224549 94 200 0.0 4.0 0.00 0.00 0.00 42 1010.5
20220705223021 94 160 0.0 5.0 0.00 0.00 0.00 43 1010.7
20220705221546 95 220 0.0 2.0 0.00 0.00 0.00 41 1010.9
20220705220123 95 223 0.0 5.0 0.00 0.00 0.00 42 1011.0
20220705214510 95 182 0.0 1.0 0.00 0.00 0.00 42 1011.3
20220705213032 95 180 0.0 1.0 0.00 0.00 0.00 44 1011.5
20220705211556 95 192 0.0 7.0 0.00 0.00 0.00 44 1011.7
20220705210106 95 160 0.0 6.0 0.00 0.00 0.00 44 1011.9
20220705204536 95 147 0.0 5.0 0.00 0.00 0.00 45 1012.1
20220705203048 95 152 0.0 3.0 0.00 0.00 0.00 44 1012.4
20220705201553 95 190 0.0 4.0 0.00 0.00 0.00 45 1012.5
20220705200104 95 132 0.0 4.0 0.00 0.00 0.00 45 1012.7
20220705194533 96 140 0.0 3.0 0.00 0.00 0.00 45 1012.8
20220705193059 94 171 0.0 3.0 0.00 0.00 0.00 46 1013.0
20220705191555 94 172 0.0 2.0 0.00 0.00 0.00 47 1013.1
20220705190110 94 200 0.0 3.0 0.00 0.00 0.00 47 1013.5
20220705184514 93 132 0.0 3.0 0.00 0.00 0.00 50 1013.5
20220705183053 92 198 0.0 4.0 0.00 0.00 0.00 52 1013.7
20220705181518 92 156 0.0 3.0 0.00 0.00 0.00 53 1014.1
20220705180057 91 181 0.0 3.0 0.00 0.00 0.00 51 1014.3
20220705174548 90 165 0.0 3.0 0.00 0.00 0.00 56 1014.5
20220705173016 90 163 0.0 6.0 0.00 0.00 0.00 56 1014.5
20220705171536 89 197 0.0 6.0 0.00 0.00 0.00 59 1014.7
20220705170012 88 180 0.0 8.0 0.00 0.00 0.00 60 1014.8
20220705164520 87 150 0.0 6.0 0.00 0.00 0.00 64 1014.8
20220705163032 85 196 0.0 0.0 0.00 0.00 0.00 68 1014.9
20220705161548 84 178 0.0 0.0 0.00 0.00 0.00 70 1014.9
20220705160100 82 196 0.0 1.0 0.00 0.00 0.00 73 1015.0
20220705154534 81 200 0.0 1.0 0.00 0.00 0.00 75 1015.1
20220705153047 81 183 0.0 3.0 0.00 0.00 0.00 75 1015.2
20220705151552 80 182 0.0 2.0 0.00 0.00 0.00 78 1015.2
20220705150105 79 198 0.0 3.0 0.00 0.00 0.00 79 1015.4
20220705144532 78 132 0.0 2.0 0.00 0.00 0.00 80 1015.4
20220705143059 77 225 0.0 2.0 0.00 0.00 0.00 81 1015.5
20220705141531 77 191 0.0 2.0 0.00 0.00 0.00 83 1015.4
20220705140110 76 183 0.0 3.0 0.00 0.00 0.00 85 1015.4
20220705134511 75 184 0.0 4.0 0.00 0.00 0.00 85 1015.4
20220705133043 75 210 0.0 6.0 0.00 0.00 0.00 86 1015.5
20220705131532 75 180 0.0 3.0 0.00 0.00 0.00 87 1015.3
20220705130100 75 182 0.0 3.0 0.00 0.00 0.00 88 1015.3
20220705124550 74 180 0.0 0.0 0.00 0.00 0.00 89 1015.3
20220705123017 74 147 0.0 1.0 0.00 0.00 0.00 89 1015.2
20220705121533 74 164 0.0 1.0 0.00 0.00 0.00 89 1015.0
20220705120053 74 181 0.0 5.0 0.00 0.00 0.00 89 1014.9
20220705114521 74 199 0.0 2.0 0.00 0.00 0.00 90 1015.0
20220705113034 74 184 0.0 0.0 0.00 0.00 0.00 89 1015.0
20220705111539 74 181 0.0 0.0 0.00 0.00 0.00 89 1014.9
20220705110050 74 194 0.0 3.0 0.00 0.00 0.00 89 1014.8
20220705104519 74 163 0.0 2.0 0.00 0.00 0.00 89 1014.8
20220705103051 74 171 0.0 1.0 0.00 0.00 0.00 89 1014.7
20220705101526 74 174 0.0 5.0 0.00 0.00 0.00 88 1014.8
20220705100105 74 163 0.0 2.0 0.00 0.00 0.00 87 1014.8
20220705094506 74 164 0.0 2.0 0.00 0.00 0.00 86 1014.7
20220705093044 75 164 0.0 1.0 0.00 0.00 0.00 85 1014.8
20220705091517 75 196 0.0 0.0 0.00 0.00 0.00 84 1014.7
20220705090054 75 187 0.0 0.0 0.00 0.00 0.00 83 1014.8
20220705084535 76 166 0.0 0.0 0.00 0.00 0.00 81 1014.8
20220705083057 76 211 0.0 1.0 0.00 0.00 0.00 80 1014.9
20220705081533 76 169 0.0 0.0 0.00 0.00 0.00 79 1015.0
20220705080015 77 178 0.0 0.0 0.00 0.00 0.00 77 1015.0
20220705074532 77 172 0.0 1.0 0.00 0.00 0.00 76 1015.1
20220705073054 77 230 0.0 7.0 0.00 0.00 0.00 75 1015.1
20220705071600 78 160 0.0 7.0 0.00 0.00 0.00 75 1015.3
20220705070114 78 169 0.0 6.0 0.00 0.00 0.00 75 1015.4
20220705064548 78 131 0.0 5.0 0.00 0.00 0.00 75 1015.4
20220705063051 79 167 0.0 3.0 0.00 0.00 0.00 74 1015.3
20220705061506 79 138 0.0 4.0 0.00 0.00 0.00 73 1015.4
20220705060122 80 218 0.0 1.0 0.00 0.00 0.00 71 1015.4
20220705054520 80 180 0.0 2.0 0.00 0.00 0.00 71 1015.6
20220705053058 81 165 0.0 1.0 0.00 0.00 0.00 70 1015.4
20220705051533 81 200 0.0 0.0 0.00 0.00 0.00 69 1015.5
20220705050108 82 182 0.0 2.0 0.00 0.00 0.00 68 1015.4
20220705044556 82 160 0.0 7.0 0.00 0.00 0.00 67 1015.2
20220705043032 83 188 0.0 6.0 0.00 0.00 0.00 65 1015.0
20220705041512 84 182 0.0 5.0 0.00 0.00 0.00 64 1014.8
20220705040012 84 174 0.0 11.0 0.00 0.00 0.00 62 1014.6
20220705034542 85 130 0.0 6.0 0.00 0.00 0.00 60 1014.3
20220705033002 86 192 0.0 7.0 0.00 0.00 0.00 59 1014.0
20220705031515 87 183 0.0 7.0 0.00 0.00 0.00 57 1013.7
20220705030122 87 178 0.0 4.0 0.00 0.00 0.00 55 1013.4
20220705024555 87 124 0.0 0.0 0.00 0.00 0.00 53 1013.0
20220705023101 88 157 0.0 1.0 0.00 0.00 0.00 49 1012.8
20220705021521 88 146 0.0 0.0 0.00 0.00 0.00 46 1012.7
20220705020011 89 110 0.0 0.0 0.00 0.00 0.00 45 1012.6
20220705014549 90 119 0.0 0.0 0.00 0.00 0.00 43 1012.5
20220705013019 90 175 0.0 1.0 0.00 0.00 0.00 42 1012.4
20220705011550 91 132 0.0 1.0 0.00 0.00 0.00 42 1012.5